Location: Newark
(23.3970°S, 47.6010°W)
Time: 12:11:04
(UTC+00:00)

Tiros 1 despin weight - Pass Details

Date: 23 February 2020
Orbit: 593 x 642 km, 48.2° (Epoch: 05 April)

Event Time Altitude Azimuth Distance (km) Brightness Sun altitude
Rises 14:17:52 0° 294° (WNW) 2,884 ? 69.3°
Reaches altitude 10° 14:20:20 10° 285° (WNW) 1,992 ? 69.7°
Maximum altitude 14:24:29 33° 220° (SW) 1,068 ? 70.4°
Drops below altitude 10° 14:28:43 10° 155° (SSE) 2,033 ? 71.1°
Sets 14:31:16 0° 146° (SE) 2,952 ? 71.6°
